Terug naar catalogus

STARLINK-2448

ActiefCommunicatieVLEO
NORAD 48111·PAYLOAD·🇺🇸 United States

Gelanceerd Apr 7, 2021 vanaf Cape Canaveral Space Force Station

Loading…

Volgende Passages (komende 24 uur)

TLE

VersSource: CelesTrak SupGP

Epoch: Sep 15, 2026, 00:46 UTC

1 48111C 21027V   26258.03243056  .00074403  00000+0  11441-2 0  2581
2 48111  53.1514 340.1633 0003542   4.6063 152.8708 15.53578071    13

Volg STARLINK-2448 in realtime met AllMySat

Download on the App Store